Preview of NWS' New Version of Forecast
This preview is not operational and should not be used for support decisions.

Regional Weather Roundup (RWR)

Issued by National Weather Service (NWS)

                            
000
ASUS43 KMKX 231620
RWRWI 

WISCONSIN REGIONAL WEATHER ROUNDUP
NATIONAL WEATHER SERVICE MILWAUKEE/SULLIVAN WI
1000 AM CST SAT FEB 23 2019

NOTE: "FAIR" INDICATES FEW OR NO CLOUDS BELOW 12,000 FEET WITH NO
SIGNIFICANT WEATHER AND/OR OBSTRUCTIONS TO VISIBILITY.

WIZ001-002-006>008-014>016-023>028-231700-
NORTHWEST WISCONSIN
  
CITY           SKY/WX    TMP DP  RH WIND       PRES   REMARKS
SUPERIOR ARPT  CLOUDY    28  27  96 E10       30.00F WCI  19          
ASHLAND        LGT SNOW  29  28  96 E7        30.03F VSB 1   WCI  22  
HAYWARD        LGT SNOW  29  25  85 SE8       29.96F FOG     WCI  21  
SIREN          CLOUDY    30  25  83 SE6       29.96F WCI  24          
CUMBERLAND     CLOUDY    28  23  80 SE6       29.95F WCI  22          
RICE LAKE      CLOUDY    30  20  68 E7        29.97F WCI  23          
CHETEK         CLOUDY    30  26  85 E9        29.95F WCI  21          
LADYSMITH      CLOUDY    30  26  83 E9        29.98F WCI  22          
EAU CLAIRE     CLOUDY    29  25  85 SE8       29.94F FOG     WCI  21  
MENOMONIE      CLOUDY    26  24  90 E8        29.95F FOG     WCI  18  
NEW RICHMOND   CLOUDY    30  24  80 E7        29.94F HAZE    WCI  23  
OSCEOLA        CLOUDY    30  27  88 E7        29.97F WCI  23          
$$
 
WIZ003>005-009-010-017-018-231700-
NORTH CENTRAL WISCONSIN
  
CITY           SKY/WX    TMP DP  RH WIND       PRES   REMARKS
MANITOWISH WTR NOT AVBL                                               
ARBOR VITAE    LGT SNOW  29  27  90 SE13      29.99F VSB 1   WCI  19  
WOODRUFF       LGT SNOW  29  27  90 SE13      29.99F VSB 1   WCI  19  
RHINELANDER    SNOW      28  24  85 E10       30.01F VSB 1/2 WCI  19  
EAGLE RIVER    LGT SNOW  26  23  89 SE9       30.02F VSB 3/4 WCI  17  
LAND O LAKES   SNOW      27  24  89 SE9       30.04F VSB 1/2 WCI  18  
PHILLIPS       CLOUDY    27  26  94 SE8       29.98F FOG     WCI  19  
TOMAHAWK       LGT SNOW  28  25  90 E6        29.97F WCI  21          
MEDFORD        CLOUDY    28  23  80 E10       29.94F WCI  19          
MERRILL        LGT SNOW  29  26  88 E7        30.00F WCI  22          
$$
 
WIZ029-030-035-036-043>047-231700-
CENTRAL WISCONSIN
  
CITY           SKY/WX    TMP DP  RH WIND       PRES   REMARKS
WAUSAU         CLOUDY    29  23  78 E17G24    29.96F HAZE    WCI  17  
MOSINEE        FLURRIES  28  25  86 E13G22    29.98F WCI  18          
MARSHFIELD     FRZ RAIN  30  25  81 SE15G24   29.93F WCI  19          
STEVENS POINT  CLOUDY    28  24  85 E12G20    29.99F WCI  18          
WAUPACA        CLOUDY    33  27  80 NE8       30.03F WCI  25          
WAUTOMA        LGT SNOW  30  27  88 NE12      30.00R FOG     WCI  20  
WISC RAPIDS    CLOUDY    31  22  69 E17G25    29.95F WCI  19          
CAMP DOUGLAS   FRZ DRZL  30  30 100 SE10      29.96F FOG     WCI  21  
$$
 
WIZ011>013-019>022-031-037>040-048>050-231700-
NORTHEAST WISCONSIN
  
CITY           SKY/WX    TMP DP  RH WIND       PRES   REMARKS
ANTIGO         CLOUDY    27  25  94 SE20G26   29.98F FOG     WCI  13  
SHAWANO        CLOUDY    33  28  82 E6        30.08R WCI  27          
OCONTO         CLOUDY    32  26  77 SE12      30.09F WCI  23          
STURGEON BAY   CLOUDY    34  25  69 SE13      30.11S WCI  25          
GREEN BAY      LGT SNOW  33  28  81 E14G24    30.05F WCI  23          
MANITOWOC      CLOUDY    33  26  75 E12       30.10F WCI  24          
APPLETON       LGT SNOW  30  28  93 E18G25    29.97F WCI  18          
CLINTONVILLE   CLOUDY    32  25  77 E12       30.06F WCI  23          
OSHKOSH        FRZ RAIN  32  28  85 SE23G31   29.99F FOG     WCI  19  
$$
 
WIZ032>034-041-042-053>061-231700-
SOUTHWEST WISCONSIN
  
CITY           SKY/WX    TMP DP  RH WIND       PRES   REMARKS
LA CROSSE      CLOUDY    33  31  92 CALM      29.93F FOG              
SPARTA         MIX PCPN  31  30  96 E7        29.93F WCI  24          
VIROQUA        CLOUDY    32  32 100 E10       29.89F WCI  24          
BOSCOBEL       CLOUDY    34  31  88 E6        29.93F FOG     WCI  29  
PRAIRIE DU CHI CLOUDY    34  32  91 E5        29.91S FOG     WCI  30  
PLATTEVILLE    CLOUDY    33  33 100 E7        29.86F WCI  27          
$$

WIZ056-057-062-063-064-067-068-231700-
SOUTH CENTRAL WISCONSIN
  
CITY           SKY/WX    TMP DP  RH WIND       PRES   REMARKS
REEDSBURG      CLOUDY    32  31  96 E8        29.94F FOG     WCI  25  
BARABOO/DELLS    N/A     32  31  95 MISG        N/A                   
LONE ROCK      CLOUDY    34  32  92 NE7       29.96R FOG     WCI  28  
MINERAL POINT  CLOUDY    34  34 100 E3        29.86F FOG              
MADISON        LGT RAIN  32  29  88 SE24G35   29.92F FOG     WCI  19  
MIDDLETON      CLOUDY    34  32  94 SE10      29.91F WCI  26          
WATERTOWN      MIX PCPN  32  32 100 E8        29.99S WCI  25          
MONROE         DRIZZLE   32  32 100 MISG      29.90F                  
JANESVILLE     LGT RAIN  34  34 100 E13       29.99F WCI  25          
$$
 
WIZ051-052-058>065-066-070>072-231700-
SOUTHEAST WISCONSIN
  
CITY           SKY/WX    TMP DP  RH WIND       PRES   REMARKS
MILWAUKEE      RAIN      33  29  85 NE14      30.04F FOG     WCI  23  
WAUKESHA       RAIN      30  28  93 NE12      30.03F WCI  21          
MILWAUKEE/TIMM RAIN      32  28  86 NE9       30.06F WCI  24          
RACINE         RAIN      33  30  88 NE9       30.06F FOG     WCI  25  
KENOSHA        RAIN      34  33  96 NE12      30.03F FOG     WCI  25  
FOND DU LAC    FRZ RAIN  33  26  75 SE16      30.00F WCI  23          
SHEBOYGAN      CLOUDY    33  24  69 E9        30.09F WCI  25          
WEST BEND      LGT SNOW  32  30  93 E14       30.04F VSB 1   WCI  22  
JUNEAU         MIX PCPN  31  30  93 E7        30.01F WCI  25          
$$

LSZ147-162-231700-
LAKE SUPERIOR
  
STATION/POSITION TIME  TEMP    WIND        PRES    WAVE
                       AIR SEA DIR/SP/G            HT/PER
                 (UTC) (F)     (DEG/KT/KT) (MB)    (FT/S)
DEVILS ISLAND    1600   29     110/ 10/ 12 1018.3F
SAXON HARBOR     1540   32     140/  6/  9 1017.3F
$$
 
LMZ867-665-643>646-231700-
LAKE MICHIGAN
  
STATION/POSITION TIME  TEMP    WIND        PRES    WAVE
                       AIR SEA DIR/SP/G            HT/PER
                 (UTC) (F)     (DEG/KT/KT) (MB)    (FT/S)
CHAMBERS ISLAND  1440   31      60/  6/  9 1020.3F
NORTHPORT PIER   1606   32     110/  7/  8 1020.3
KEWAUNEE LAKESHO 1554   33     140/  9/ 11 1019.0F
SHEBOYGAN LAKESH 1600   33     100/  9/  9 1019.8F
PORT WASHINGTON  1600   34      70/  8/ 16 1019.6
MILWAUKEE LAKESH 1530   33      30/  1/  2   N/A
KENOSHA   LAKESH 1600   33     360/ 11/ 12 1017.6
$$

TC  - TEMPERATURE IN CELSIUS
VSB - VISIBILITY IN STATUTE MILES
WCI - WIND CHILL INDEX
HX  - HEAT INDEX